GFSSGP_850_temp_021.txt.gz
Temp
20 20 20 20 16 13 16 19 18 20 20 21 21 21 20 20 19 17 21 21 20 20 19 18 17 17 17 17 17 17 17 17 17 17 16 16 16 16 16 16 15 15 14 15 15 15 16 15 15
20 20 20 20 14 14 15 17 20 20 21 21 21 21 20 20 21 21 21 21 21 20 19 18 18 18 17 17 17 17 17 17 17 17 16 16 16 16 16 16 15 15 14 14 15 15 15 15 15
20 21 21 12 11 15 16 18 19 20 21 21 21 21 21 21 21 21 21 21 21 20 19 19 18 18 17 17 17 17 17 17 16 16 16 16 16 16 15 15 15 14 14 14 14 14 15 15 15
20 20 18 14 19 19 19 19 19 20 21 21 21 20 21 21 21 21 21 21 21 20 19 18 18 18 17 17 17 17 17 16 16 16 16 15 15 16 15 14 13 13 13 15 15 14 15 15 15
20 19 13 15 17 18 18 19 20 19 20 21 20 20 21 21 21 21 21 21 21 21 20 19 18 17 17 17 17 17 17 17 16 16 16 16 15 15 15 14 13 12 13 16 15 15 15 15 15
19 17 14 16 18 18 19 20 20 20 20 21 21 20 21 21 21 21 21 21 20 20 19 19 18 18 18 17 17 17 16 16 16 16 16 15 15 15 14 14 14 14 14 16 15 15 15 15 15
16 12 14 16 17 19 19 20 20 19 19 20 21 19 21 21 21 21 21 20 20 20 20 19 19 18 17 17 16 16 16 16 15 15 15 14 14 14 14 14 14 15 15 15 15 15 15 15 15
19 13 16 16 16 19 19 20 20 20 20 20 21 18 20 20 20 20 20 20 20 20 20 20 19 18 18 17 16 16 16 15 15 15 15 14 14 14 14 14 13 14 15 15 15 15 15 15 15
18 12 14 17 18 19 19 18 20 20 20 20 20 20 20 20 19 20 20 19 19 19 19 19 19 19 18 18 17 16 15 14 14 14 13 13 13 13 13 13 13 13 14 14 15 15 15 15 15
16 12 15 17 17 18 18 18 18 19 19 18 19 19 19 19 19 18 18 18 19 18 18 18 17 17 17 17 17 16 16 14 13 13 13 12 12 12 13 13 12 13 13 13 14 14 15 15 15
15 14 15 17 18 18 18 17 17 17 16 19 17 19 19 20 20 19 19 19 20 20 19 18 18 17 16 16 17 16 16 14 13 14 12 12 12 12 12 13 12 12 12 13 13 14 14 14 14
16 17 17 18 18 17 17 18 17 17 19 18 18 18 19 19 19 19 19 19 19 19 19 19 19 19 18 17 16 16 15 15 14 13 13 13 12 12 12 11 11 12 12 11 12 13 14 14 14
16 16 17 18 18 17 17 17 16 18 20 18 18 17 18 17 18 17 17 17 18 18 19 19 19 19 18 18 16 16 15 15 14 13 13 12 12 11 11 11 11 11 10 11 11 11 12 13 13
16 16 16 18 18 17 16 15 17 19 18 17 17 18 16 15 15 15 16 16 16 17 17 17 18 18 18 18 16 15 14 14 13 13 12 12 12 11 11 11 11 11 10 10 10 10 11 11 12
16 14 13 15 16 15 16 16 14 20 17 17 17 16 15 15 14 14 15 16 16 16 16 16 17 18 18 17 16 15 13 13 12 12 11 11 11 11 11 10 10 10 10 10 10 10 10 11 11
14 13 13 16 15 16 16 15 16 19 17 15 13 12 12 13 13 13 14 15 15 14 13 13 14 15 16 16 15 14 13 12 12 11 11 11 11 11 11 11 10 10 10 10 9 9 9 10 10
11 12 12 13 15 15 15 14 16 16 16 12 10 9 10 10 10 11 11 12 13 13 12 12 12 14 14 14 14 13 12 11 11 11 11 10 11 11 11 11 11 10 10 10 10 10 9 9 9
12 11 12 13 15 15 15 13 12 17 14 12 8 8 8 8 8 9 9 10 10 11 11 11 11 11 12 13 12 11 11 11 10 10 10 10 10 10 10 10 9 9 10 10 10 9 8 8 8
13 12 13 12 13 14 12 11 11 14 12 8 7 6 6 7 6 7 8 9 9 10 11 11 11 11 10 10 11 10 10 9 9 9 9 9 9 10 10 9 9 9 9 8 7 8 7 7 7
11 12 10 11 12 12 11 12 11 11 9 9 6 5 5 5 6 6 7 8 9 10 10 11 11 10 10 10 9 9 8 9 9 8 8 8 8 8 9 9 9 9 8 7 7 6 6 6 6
11 10 11 12 12 12 11 10 11 6 5 5 5 5 5 5 5 6 7 8 8 9 10 10 11 11 10 10 9 8 8 7 7 7 7 7 7 6 7 7 7 7 7 7 6 6 5 5 5
11 10 11 11 11 10 11 9 10 9 5 3 3 4 4 4 5 5 6 7 8 8 8 9 9 10 10 9 9 9 9 8 7 6 6 6 6 5 5 5 5 5 5 5 5 5 4 4 4
11 11 10 12 10 10 10 9 9 8 7 3 2 3 3 3 4 5 6 6 6 7 8 8 9 9 9 9 9 9 9 7 5 5 5 5 5 4 4 4 4 4 4 4 4 3 3 3 3
10 11 9 7 7 7 9 10 9 9 9 4 2 3 3 3 4 4 5 5 6 6 7 8 8 8 8 8 8 8 7 6 5 5 5 4 4 4 3 3 2 2 2 2 2 2 2 2 2
11 10 9 8 6 8 7 7 10 9 5 5 3 2 3 3 4 4 5 5 6 6 7 7 7 8 8 8 8 7 7 6 6 5 4 3 3 3 3 2 2 2 2 1 1 1 1 1 1
8 10 8 9 7 8 7 8 10 4 3 5 4 4 3 3 4 4 4 5 5 5 6 6 6 6 6 6 5 5 5 5 4 3 2 2 2 2 1 1 1 1 1 1 1 0 0 0 0
9 9 9 8 -1 4 8 8 5 3 2 2 2 3 3 3 3 4 4 5 5 5 5 5 4 4 4 4 3 3 3 2 2 1 1 1 1 1 1 1 1 1 1 0 0 0 0 -0 -0
10 8 8 5 6 4 7 7 8 4 3 1 1 3 3 3 4 5 5 5 4 4 4 3 3 3 2 1 1 1 1 0 -0 -0 -0 -0 -0 -0 -0 -0 -0 -0 -0 -1 -1 -1 -1 -1 -0
8 8 8 7 6 6 4 8 6 6 3 2 2 4 4 5 5 5 5 4 3 2 2 2 2 1 1 0 -0 -1 -1 -1 -1 -1 -1 -1 -1 -1 -1 -1 -1 -1 -1 -1 -1 -1 -1 -1 -1
8 8 8 8 7 4 6 9 4 6 4 4 4 5 5 5 6 5 4 4 3 2 2 2 1 0 -0 -0 -0 -1 -1 -1 -1 -1 -2 -2 -2 -2 -2 -2 -2 -2 -2 -2 -2 -2 -2 -2 -1

GFSSGP_850_temp_024.txt.gz
Temp
20 20 20 20 16 13 15 18 17 19 19 20 20 20 19 20 19 17 21 20 19 19 19 18 18 17 17 17 17 17 17 17 16 16 16 16 16 16 16 15 15 15 14 14 15 15 15 15 15
20 21 20 20 14 14 15 16 19 19 20 20 20 20 20 19 21 21 21 20 20 19 19 18 18 18 17 17 17 17 17 16 16 16 16 16 16 16 16 15 14 14 14 13 14 15 15 15 15
20 21 20 11 11 14 16 17 18 19 20 20 20 20 20 21 21 21 21 21 20 19 18 18 18 18 17 17 17 17 17 17 17 16 16 16 16 16 15 15 15 14 14 13 14 14 14 15 15
20 20 18 14 18 17 18 18 18 19 20 20 20 20 20 21 21 21 21 21 20 19 18 18 17 17 17 17 17 17 17 17 16 16 16 16 16 15 15 15 13 13 13 13 15 14 14 14 15
21 19 13 15 17 17 17 18 19 18 19 20 20 20 20 20 20 21 21 20 20 20 19 18 17 17 17 17 16 16 16 16 16 16 15 15 15 15 15 14 13 12 12 14 15 15 14 14 15
19 17 13 15 17 17 17 19 19 19 19 20 20 19 20 20 20 20 21 20 20 20 20 19 18 17 16 16 16 16 16 16 15 15 15 15 15 14 14 14 14 14 15 15 15 15 15 14 14
15 11 13 15 16 18 18 19 19 19 19 20 20 18 20 20 20 20 20 20 20 20 19 18 18 18 17 17 16 16 15 15 15 15 15 14 14 14 14 13 13 13 14 14 15 15 14 14 15
18 12 15 15 15 18 18 19 19 19 19 20 20 18 19 19 19 19 19 19 19 19 19 18 17 17 16 16 16 15 15 15 15 14 14 14 14 14 14 13 13 13 13 13 14 14 14 14 15
18 12 13 16 15 18 18 18 19 19 19 19 19 19 18 18 19 19 19 19 19 18 18 18 17 17 16 16 16 15 15 14 13 13 13 13 13 13 13 13 12 12 12 13 13 14 14 14 14
15 11 15 15 17 17 18 17 18 18 18 18 19 18 18 18 19 19 19 19 19 19 18 18 18 18 17 16 15 15 14 13 13 13 13 12 12 12 12 12 12 12 12 12 12 13 14 14 14
14 14 15 17 17 17 17 17 17 17 16 17 17 17 18 18 18 19 18 19 19 19 19 18 18 18 18 17 16 15 14 14 13 12 12 12 12 12 11 11 11 11 12 12 11 12 12 13 13
16 16 16 17 17 17 16 17 17 16 17 16 17 17 18 18 18 18 17 17 17 18 18 18 18 18 18 17 17 16 15 14 13 12 12 12 12 12 11 11 11 11 11 11 11 10 11 12 13
15 16 16 17 16 16 16 16 16 18 17 17 17 16 16 16 16 16 16 16 16 17 17 17 17 18 18 17 17 16 15 14 13 12 12 12 12 11 11 11 11 11 11 10 10 10 10 11 12
15 15 15 17 17 16 15 15 16 16 16 17 17 17 15 14 14 14 14 15 15 16 16 16 17 17 17 17 17 15 14 13 12 12 11 11 11 11 11 11 10 11 11 10 10 10 10 10 10
15 14 12 15 15 15 15 16 14 16 16 17 16 15 13 13 13 14 14 15 15 16 15 15 16 16 16 17 15 14 13 12 12 12 11 11 11 11 11 11 12 11 11 10 10 10 10 9 9
14 12 12 15 14 15 15 15 15 16 16 14 13 12 12 12 11 10 11 13 13 12 13 15 14 14 15 15 14 13 11 11 11 11 11 11 11 11 11 11 11 11 11 11 10 10 10 10 9
10 12 12 12 14 14 15 14 15 15 14 12 10 9 9 10 11 11 11 11 11 12 12 12 12 13 13 13 13 12 11 11 11 10 10 10 10 10 10 10 10 10 10 10 9 10 10 9 9
11 11 11 12 14 14 14 12 12 14 14 11 8 8 8 9 9 10 10 10 10 10 11 11 11 12 12 11 11 11 10 10 10 10 10 10 10 10 10 9 9 9 10 9 9 8 8 8 7
12 11 12 12 13 14 12 11 12 14 10 7 6 6 6 7 6 8 9 9 10 10 11 11 11 10 10 10 10 9 10 9 9 8 8 8 8 9 9 9 9 9 8 8 8 8 8 7 7
11 11 10 10 11 12 11 10 10 10 8 7 5 5 5 5 6 7 8 9 10 10 10 10 11 10 10 10 10 9 9 8 8 8 8 8 8 7 8 8 8 7 7 7 7 7 7 7 6
9 9 10 11 11 11 11 9 10 5 5 4 4 5 5 6 6 6 7 8 8 9 9 10 10 10 10 10 10 9 8 8 7 8 8 8 8 7 7 7 7 6 6 6 6 6 6 5 5
10 9 10 11 10 9 10 9 9 7 4 2 3 4 4 5 5 6 6 7 8 8 8 9 9 10 9 9 9 10 10 10 9 8 7 7 7 7 6 6 6 5 5 5 5 4 4 4 3
11 9 9 10 8 9 10 8 8 7 6 2 2 3 3 4 4 5 5 7 7 7 8 8 9 9 9 9 9 9 10 9 7 7 6 6 6 5 5 5 4 4 3 3 3 3 3 2 2
9 9 8 6 7 6 9 9 8 7 8 4 2 2 3 3 4 4 5 6 6 6 7 7 8 8 8 8 8 8 8 7 6 5 5 4 4 4 4 3 3 3 3 2 2 2 1 1 1
10 9 9 8 6 8 7 7 9 8 6 5 3 2 3 3 4 4 5 5 5 6 6 6 7 7 7 7 7 7 6 6 6 5 5 4 3 3 3 2 2 2 1 1 1 1 1 1 0
8 9 8 9 7 7 6 7 10 4 2 3 4 4 3 3 4 4 5 5 5 5 6 6 6 6 6 6 6 5 5 5 5 4 4 3 3 2 2 1 1 1 0 0 -0 -0 0 -0 -0
9 9 9 7 -2 3 8 8 5 3 2 1 2 3 3 3 4 4 5 5 5 5 5 5 5 5 5 4 4 4 4 3 3 3 2 2 1 1 1 0 -0 -0 -0 -0 -0 -1 -1 -1 -1
9 8 8 5 7 5 8 7 9 5 4 0 0 2 3 3 4 4 4 4 5 5 4 4 4 3 3 3 3 2 2 1 1 1 0 -0 -1 -1 -1 -1 -1 -1 -1 -1 -1 -1 -1 -0 -0
8 8 7 7 6 7 5 8 6 6 3 1 1 3 4 5 5 5 5 5 5 4 3 3 2 2 2 2 1 0 0 -0 -0 -1 -1 -2 -2 -2 -2 -2 -2 -2 -2 -2 -1 -1 -1 -1 -1
7 7 7 9 7 3 5 9 4 4 3 4 3 5 5 6 6 5 5 4 4 3 2 2 1 1 1 0 -0 -0 -1 -1 -2 -2 -2 -2 -2 -2 -3 -2 -2 -2 -2 -2 -2 -2 -2 -2 -2

GFSSGP_850_temp_030.txt.gz
Temp
21 21 21 20 24 24 22 22 22 22 22 20 19 21 23 22 22 22 20 19 19 19 18 17 17 17 16 16 16 16 16 16 16 16 16 16 16 16 15 15 15 15 14 14 15 15 15 15 15
20 21 21 21 24 24 23 22 22 22 21 19 19 20 22 22 19 19 19 18 19 18 18 18 17 17 16 16 16 16 16 16 16 16 16 15 15 15 15 15 15 14 14 15 15 15 15 15 14
21 21 22 23 23 23 23 22 22 21 19 20 21 20 21 21 19 19 19 19 18 18 18 17 17 17 17 16 16 16 16 16 16 16 16 16 15 15 15 15 14 14 14 14 15 15 15 15 15
21 21 20 24 22 21 22 22 21 21 20 19 20 22 19 19 19 19 19 19 19 18 18 17 17 17 17 16 16 16 16 15 16 16 16 16 15 15 15 14 14 13 14 15 15 15 15 15 15
21 21 23 22 21 21 21 20 20 22 21 21 20 22 20 18 18 18 18 19 18 18 18 17 17 16 16 16 16 16 16 16 15 15 15 15 14 14 14 14 14 13 14 15 15 15 15 15 15
21 20 23 23 22 21 21 20 20 21 20 20 21 21 19 17 18 18 18 18 18 18 17 17 17 16 16 16 16 16 16 15 15 15 15 15 14 14 13 13 13 13 13 14 14 14 14 14 14
21 22 22 22 22 21 21 18 21 21 21 21 19 22 18 18 18 18 18 18 18 18 17 17 16 16 16 16 15 14 14 14 14 14 15 15 14 14 13 13 13 12 12 12 13 14 14 14 15
18 21 20 21 21 22 20 19 19 20 21 19 19 22 20 18 18 18 18 18 18 18 18 17 17 16 15 15 15 14 14 14 14 14 14 14 14 13 13 13 12 12 12 12 12 12 13 14 14
19 22 21 21 20 21 19 20 18 19 19 18 17 17 18 18 18 18 17 18 18 18 18 18 17 17 17 16 15 14 14 14 14 14 14 13 14 13 13 12 12 12 11 11 11 12 12 13 13
20 22 21 20 20 21 19 19 19 19 19 19 17 17 17 17 17 17 17 17 17 18 18 18 18 17 17 17 17 16 14 14 14 14 14 13 13 13 13 12 12 12 12 11 10 10 12 12 13
17 21 19 18 18 18 19 18 18 19 20 19 18 15 16 17 17 17 17 17 18 17 18 18 17 17 17 16 15 15 13 13 14 14 13 13 13 13 12 12 12 11 11 11 10 10 10 10 11
20 17 17 17 16 16 18 17 18 18 18 17 17 17 16 16 16 17 17 17 17 17 17 17 17 17 17 16 15 14 13 12 12 13 13 13 13 12 12 12 11 11 11 11 11 10 10 10 10
18 17 16 16 16 16 16 17 18 17 16 16 16 16 16 16 16 16 16 16 16 16 17 17 17 17 17 16 15 14 12 12 12 12 12 12 12 12 12 12 11 11 11 11 11 11 10 10 10
16 16 17 16 16 15 16 17 15 15 14 14 14 15 15 15 15 15 15 14 14 15 15 16 16 17 17 17 15 12 12 12 12 11 12 12 12 12 12 12 11 11 11 11 11 10 10 10 10
15 18 18 18 16 17 15 16 17 14 11 11 11 13 14 14 14 14 14 14 14 14 14 14 14 14 14 15 13 11 12 12 11 11 11 11 11 11 12 11 11 11 10 10 10 10 10 10 10
17 17 19 18 15 15 15 21 17 12 12 12 10 12 13 13 13 14 13 13 13 13 13 13 14 13 12 10 11 12 11 10 10 10 11 11 11 11 11 10 10 10 10 10 10 10 9 9 9
16 20 18 18 15 16 16 20 16 13 13 13 11 11 10 11 11 11 11 11 11 11 12 12 12 11 10 11 11 10 10 10 10 11 11 11 10 11 10 10 10 9 9 9 9 9 10 9 9
19 17 16 18 17 15 17 18 16 13 13 14 12 8 7 7 9 10 10 10 10 10 11 11 10 9 10 11 11 10 10 10 10 10 10 9 10 10 10 9 9 9 9 9 9 9 8 8 8
17 17 18 17 15 15 18 18 19 16 13 13 11 8 7 7 8 9 10 10 10 10 10 9 9 8 9 9 9 9 10 9 10 9 9 9 9 9 9 9 9 9 9 9 9 8 8 8 8
15 16 17 16 14 15 17 16 18 16 14 13 12 8 6 7 8 8 8 9 8 9 8 8 8 8 8 8 9 9 9 9 9 9 9 9 9 9 9 9 8 8 8 8 7 7 7 6 6
14 16 17 16 13 13 14 16 17 15 9 7 7 7 5 6 7 8 8 9 9 10 10 10 9 8 8 8 9 9 9 9 9 9 9 9 8 9 8 8 8 7 7 7 6 6 5 5 4
15 14 14 14 14 15 13 17 17 15 12 7 6 6 5 5 6 7 7 8 8 8 9 9 9 9 9 9 9 10 10 10 9 9 8 8 8 7 7 7 6 6 6 6 5 4 4 4 3
15 12 13 13 14 13 14 14 17 12 13 10 7 6 5 4 5 6 6 7 8 9 9 9 9 9 9 9 9 9 10 9 8 7 7 7 6 6 6 5 4 4 4 3 3 3 3 2 2
10 11 11 11 12 12 14 15 17 17 16 12 8 5 4 3 5 6 7 7 8 8 8 8 8 8 8 8 8 8 8 8 8 7 6 6 5 4 4 4 3 3 3 2 2 1 1 1 1
12 13 13 12 12 13 10 12 17 16 12 11 8 5 4 3 4 5 6 6 7 7 7 7 7 8 7 7 7 7 7 6 6 5 5 5 4 4 4 3 3 2 2 1 1 1 0 0 0
12 15 15 13 13 14 7 12 15 9 6 5 6 5 3 2 4 6 6 6 6 6 6 6 7 7 6 6 6 6 6 5 5 5 4 4 4 3 3 2 2 1 1 1 0 0 -0 -0 -0
11 11 13 10 4 11 15 13 13 7 7 5 5 4 3 3 5 5 5 5 5 6 6 6 6 6 5 5 5 5 5 4 4 4 3 3 3 2 2 1 1 1 1 0 0 -0 -0 -1 -1
12 12 11 11 11 12 14 13 17 10 10 6 4 4 3 3 5 5 5 5 5 5 5 6 5 4 5 4 4 4 4 3 3 3 2 2 1 1 1 0 -0 -1 -1 -1 -1 -1 -1 -1 -1
10 11 11 12 12 13 14 16 14 14 12 9 7 5 4 3 5 5 5 5 5 5 5 5 5 4 4 4 3 3 3 2 2 2 1 1 0 -1 -1 -1 -2 -2 -2 -2 -2 -2 -2 -2 -2
12 13 12 13 10 10 10 14 8 9 11 9 9 5 4 4 5 5 5 5 5 5 5 5 4 4 3 3 2 2 2 1 1 0 -0 -1 -1 -2 -2 -2 -2 -3 -3 -3 -3 -3 -3 -3 -3

GFSSGP_850_temp_033.txt.gz
Temp
21 21 22 21 25 26 24 23 25 24 24 23 22 24 24 23 23 22 18 17 18 16 16 17 16 16 16 16 16 16 16 16 16 16 16 16 16 16 15 15 15 14 14 14 15 15 15 15 15
21 21 21 24 26 26 24 25 24 24 23 22 22 23 24 23 21 20 19 18 18 16 15 16 17 16 16 16 16 16 16 16 16 16 16 16 15 15 15 15 14 14 14 15 14 15 15 15 15
21 21 24 26 26 26 25 25 24 23 22 23 23 22 23 22 20 19 18 18 18 17 15 15 16 16 16 16 16 16 16 15 15 15 15 15 15 15 15 14 14 14 14 14 15 15 15 15 15
20 22 24 26 25 24 25 25 24 23 22 22 23 23 20 17 18 16 18 17 16 16 15 16 16 16 16 16 16 16 16 15 15 15 15 15 14 14 14 14 13 13 14 14 15 14 14 14 15
21 23 25 25 24 24 24 24 23 24 24 23 22 23 20 17 16 16 16 16 16 15 15 16 16 15 15 15 15 15 15 15 15 15 15 14 14 14 14 14 14 13 13 14 14 15 14 14 14
24 24 25 24 25 24 24 23 23 24 23 23 23 23 19 16 16 17 17 17 16 17 17 16 16 16 15 14 14 14 14 14 15 15 15 14 14 14 14 13 13 13 13 13 14 14 14 14 14
24 25 25 26 24 23 24 22 23 24 23 23 22 24 19 16 18 18 18 18 18 18 18 17 17 16 16 15 14 14 14 14 14 14 14 14 14 13 13 13 13 13 13 13 13 13 14 14 14
22 24 23 25 24 24 23 22 22 23 23 20 20 23 21 18 18 18 17 17 17 17 17 17 17 17 16 16 15 14 14 14 14 14 14 14 14 14 13 13 12 12 11 11 13 13 13 14 14
19 24 24 24 24 24 22 23 21 20 21 20 19 18 18 18 18 17 16 16 17 17 17 17 17 17 16 16 14 14 14 14 14 14 14 14 14 14 13 12 12 11 11 11 10 11 11 12 13
22 24 24 24 25 24 22 22 22 21 22 21 18 17 18 17 16 15 15 14 16 17 17 17 17 17 17 16 16 15 14 14 14 14 14 14 13 13 13 12 12 12 11 12 12 11 10 11 11
22 24 22 21 21 22 22 21 21 22 22 22 21 17 16 15 16 15 15 16 16 17 17 17 17 16 16 16 16 16 15 13 13 13 13 13 13 13 14 13 13 12 12 11 11 11 11 10 10
22 20 21 20 19 19 20 21 21 21 20 17 16 15 15 14 16 16 16 16 16 16 16 16 17 16 16 15 14 14 12 12 13 13 13 13 13 12 12 13 12 12 11 12 12 11 11 10 10
21 20 19 19 17 18 18 20 20 20 16 16 16 15 14 15 15 16 16 15 15 15 16 16 16 16 16 15 12 12 12 12 12 12 12 12 12 12 12 12 11 11 11 11 12 11 11 11 11
19 19 20 19 19 18 18 20 18 20 15 14 14 13 13 14 15 13 14 14 15 15 15 16 16 16 16 15 13 12 12 12 11 11 12 12 12 12 12 12 11 11 11 10 10 10 11 11 11
18 19 21 20 19 19 17 19 17 19 14 15 14 13 13 14 13 14 14 14 13 13 14 15 15 15 14 14 11 11 11 11 12 11 11 11 11 11 11 11 11 10 11 10 10 10 10 10 10
19 19 21 20 18 17 17 22 22 15 15 15 14 13 11 12 13 13 13 13 13 13 13 13 13 13 12 10 11 11 11 11 10 11 11 11 11 11 11 11 11 10 10 10 10 10 10 10 9
20 21 21 21 19 18 18 22 18 15 16 16 15 14 11 10 11 13 13 13 12 13 13 13 12 11 10 10 10 10 10 10 10 10 10 10 10 10 10 10 10 9 9 9 9 9 9 9 8
22 20 21 20 19 18 19 19 19 16 16 18 17 14 12 10 10 13 13 13 12 12 11 10 9 9 10 10 10 10 10 10 10 10 10 9 10 9 10 9 9 9 9 9 8 8 8 8 8
20 20 20 22 19 17 19 20 21 18 16 17 18 15 12 10 11 12 11 12 11 10 9 8 9 9 9 9 10 10 10 10 10 10 10 10 10 9 9 9 9 9 9 8 8 7 7 8 8
18 18 19 21 18 16 18 19 20 20 18 18 18 16 13 9 8 9 9 10 10 8 7 8 8 8 9 9 9 9 9 9 9 9 10 10 9 9 10 9 9 9 8 8 8 7 7 7 7
18 18 19 19 16 16 17 17 18 19 19 18 15 16 13 9 8 6 8 9 9 8 8 7 7 8 8 8 9 9 9 9 9 9 9 9 9 9 9 9 8 8 8 8 7 7 6 5 5
18 19 17 17 16 17 17 17 20 20 16 14 12 12 11 9 7 6 7 8 9 8 8 7 7 8 8 8 9 9 10 10 10 9 9 9 8 8 8 8 7 7 7 6 6 5 5 4 4
17 16 16 16 15 16 16 15 19 20 19 16 12 11 10 8 7 5 5 7 8 8 8 8 8 8 8 8 9 10 10 9 9 9 8 8 7 7 7 6 6 5 5 4 4 3 3 3 2
14 14 14 14 15 13 15 16 18 19 16 18 13 10 9 7 6 5 7 8 8 8 8 8 8 8 9 9 9 9 9 9 9 8 7 7 6 5 5 4 4 4 3 3 2 2 1 1 1
14 14 15 14 13 14 14 15 18 19 15 16 13 10 8 6 5 4 7 7 8 8 8 8 8 8 8 8 8 8 8 8 7 7 6 5 5 5 4 4 3 3 3 2 2 1 1 0 0
13 15 15 14 15 16 10 13 17 16 12 10 12 9 7 6 5 5 7 7 7 7 7 8 8 8 8 8 7 7 7 7 6 5 5 4 4 4 3 3 2 2 2 1 1 1 0 -0 -0
13 13 16 13 7 12 16 16 17 10 9 9 10 8 7 5 5 5 5 6 7 7 7 7 7 7 7 7 7 7 6 5 5 4 4 4 3 3 2 2 2 1 1 1 1 1 0 -0 -1
13 15 12 12 12 13 17 17 18 11 12 10 8 7 6 5 5 4 5 7 7 7 7 7 6 6 7 6 6 5 5 4 4 3 3 3 2 2 1 1 1 0 -0 -0 -1 -1 -1 -2 -2
11 12 13 14 15 15 15 18 19 18 15 12 9 8 7 6 5 5 5 6 6 6 6 6 6 6 6 5 5 4 4 3 3 3 2 2 1 1 1 -0 -1 -1 -1 -2 -2 -2 -2 -2 -2
15 14 14 14 11 12 14 16 13 18 17 13 11 8 7 6 5 5 5 5 5 6 6 6 5 5 5 4 4 3 3 3 2 2 1 1 1 0 -1 -1 -1 -2 -2 -2 -3 -3 -3 -3 -3

GFSSGP_850_temp_036.txt.gz
Temp
22 22 22 21 20 22 21 22 24 23 22 23 23 23 20 21 20 16 18 18 17 16 17 17 16 16 16 16 16 16 16 16 16 16 16 15 15 15 14 14 14 14 14 14 14 15 15 15 15
22 22 22 23 21 21 21 23 22 21 23 23 23 23 22 19 20 18 17 17 17 16 16 16 16 16 16 16 16 16 16 16 16 16 16 15 15 15 14 14 14 13 14 15 15 14 15 15 15
22 22 22 21 22 21 21 23 21 22 23 23 23 23 21 19 19 17 17 16 16 15 15 15 16 15 15 16 15 15 15 15 15 15 15 15 15 15 15 14 14 14 14 15 15 14 15 15 15
21 22 23 21 21 23 23 22 23 23 23 22 23 19 18 17 18 17 17 16 16 15 15 15 15 15 15 15 15 16 16 15 15 15 15 15 14 14 14 14 14 14 14 14 15 15 14 15 15
22 23 21 23 22 23 22 24 24 23 24 23 23 19 18 16 16 16 17 16 15 16 15 16 16 15 15 15 15 15 15 15 15 15 15 14 14 14 14 13 13 13 13 13 14 14 14 15 15
22 24 21 21 22 23 23 23 24 24 24 23 23 20 17 16 16 17 16 16 15 16 15 16 16 16 15 14 14 14 14 14 14 14 14 14 14 14 14 14 14 13 13 13 13 13 14 14 15
22 21 20 23 21 22 22 23 23 24 23 22 22 20 17 17 17 17 18 18 18 17 16 15 15 15 15 15 14 14 14 14 14 14 14 14 14 14 13 13 13 12 12 12 13 13 13 14 14
21 22 23 24 21 22 22 23 22 23 20 21 21 20 17 18 18 17 17 18 17 17 17 17 17 16 16 14 14 14 14 15 14 14 14 14 14 14 13 13 12 12 11 11 12 12 12 12 13
20 19 20 24 24 22 22 22 22 21 21 20 19 19 18 18 17 17 16 16 16 17 17 17 16 17 16 16 14 15 14 14 14 14 14 14 14 13 12 12 12 11 11 11 11 10 11 12 12
21 19 21 22 22 22 22 23 21 21 22 19 18 17 17 17 16 15 15 15 16 16 17 17 16 16 16 15 15 13 13 14 14 14 14 14 13 13 12 12 12 12 11 11 11 10 10 10 11
22 20 22 21 21 21 22 21 21 21 21 21 20 17 16 16 15 15 15 15 16 16 16 17 17 16 16 16 15 13 13 13 13 13 13 13 13 13 12 12 13 13 12 12 11 11 11 10 10
19 21 21 20 19 20 21 21 21 21 19 18 18 17 16 15 15 15 16 16 16 16 16 16 16 16 16 16 15 13 12 12 12 13 13 13 12 12 12 12 12 13 12 12 12 12 11 11 11
20 21 20 19 18 19 19 19 20 20 19 18 18 16 15 15 15 15 15 16 16 16 16 16 17 16 16 15 13 12 12 13 13 12 12 13 13 12 12 12 12 12 11 11 11 11 12 11 11
19 19 20 19 19 18 18 19 20 20 18 18 16 15 15 15 15 15 15 16 15 16 16 16 16 16 17 15 15 12 11 11 12 12 12 12 12 12 12 12 12 11 11 10 10 11 10 10 11
18 18 18 19 19 19 18 16 17 19 17 16 15 14 14 14 15 16 15 15 15 15 15 16 16 16 15 14 13 11 11 11 11 11 12 13 12 12 12 11 11 11 11 10 10 10 10 10 10
18 19 18 18 19 17 17 17 18 19 17 15 15 13 13 13 15 15 15 15 15 15 15 16 15 15 13 11 11 10 10 11 10 10 11 11 11 11 11 11 11 11 10 10 10 10 10 10 9
18 17 18 17 18 16 15 17 17 16 16 16 15 14 13 13 13 14 14 14 14 14 14 14 13 12 10 10 10 10 10 10 10 10 11 11 11 11 11 11 10 10 10 10 10 10 10 9 9
18 17 18 19 17 17 15 14 16 16 16 17 16 15 13 12 12 13 13 13 12 12 13 12 10 8 9 9 9 10 10 10 10 10 10 10 10 10 10 10 10 10 10 10 9 9 9 9 9
18 18 17 19 17 17 16 16 17 17 16 17 17 16 14 12 11 11 12 11 11 11 10 8 8 9 9 9 9 9 10 9 10 10 10 10 10 10 9 9 9 10 9 9 9 9 8 8 9
17 17 16 18 16 16 15 15 17 18 16 17 17 17 14 12 11 10 10 11 10 10 7 7 8 8 8 9 9 9 9 9 9 9 9 9 9 9 9 9 9 9 9 8 8 8 8 8 8
16 16 16 17 16 15 14 13 15 16 19 17 17 18 16 13 11 9 8 9 10 10 7 7 7 7 8 8 8 9 9 9 9 9 10 9 9 9 9 9 9 8 8 8 7 7 7 7 6
15 17 16 16 15 13 14 12 16 17 16 17 17 17 15 11 10 9 8 8 9 8 6 7 7 7 7 8 8 9 9 9 9 9 9 9 9 8 8 8 8 7 7 7 6 6 5 5 5
16 15 16 16 13 13 14 12 14 16 16 15 12 14 13 11 9 8 8 8 9 8 8 6 6 7 7 8 8 9 9 9 9 9 9 8 8 8 7 7 6 6 5 5 5 4 4 3 3
13 14 14 14 12 9 12 13 13 16 17 16 12 13 12 10 8 8 6 7 8 8 7 7 7 8 8 8 8 9 9 9 9 8 8 7 7 7 6 6 5 5 4 4 3 3 2 2 1
14 13 11 10 8 9 13 12 14 15 16 15 12 11 11 9 7 6 6 7 8 8 8 8 8 8 8 9 9 9 9 8 8 8 7 7 6 6 5 5 4 4 3 3 2 2 1 1 1
11 13 10 11 10 10 9 10 13 11 11 13 12 11 10 8 7 6 7 8 8 8 8 8 8 8 9 9 8 8 8 8 8 7 7 6 5 5 4 4 3 3 2 2 1 1 1 0 0
11 11 14 11 5 7 11 12 15 9 8 9 10 9 8 7 6 6 7 8 8 8 8 8 8 8 8 8 8 8 8 7 7 6 6 5 4 4 3 3 2 2 1 1 1 0 -0 -0 -1
12 12 9 9 8 8 12 13 14 9 9 7 8 8 7 7 6 6 7 7 8 8 8 8 8 8 8 7 7 7 7 6 6 5 5 4 3 3 2 2 1 1 1 0 -0 -1 -1 -2 -2
10 10 12 12 10 9 10 12 16 13 11 8 8 8 7 6 6 6 6 7 8 7 7 8 7 7 7 7 7 6 6 5 5 4 4 3 2 2 1 1 0 0 -0 -1 -1 -2 -2 -2 -3
13 11 11 10 10 11 8 14 14 14 11 10 9 8 7 7 6 6 7 7 7 7 7 7 7 7 6 6 6 6 5 5 4 4 3 2 2 1 1 -0 -0 -1 -1 -1 -2 -2 -3 -3 -3